Tracking 28790 objects as of 19-Apr-2024
HD Live streaming from Space Station
objects crossing your sky now

FENGYUN 1C DEB

Track FENGYUN 1C DEB now!
10-day predictions


NORAD ID: 41008
Int'l Code: 1999-025EXN
Perigee: 668.9 km
Apogee: 1,430.2 km
Inclination: 99.3 °
Period: 106.0 minutes
Semi major axis: 7420 km
RCS: Unknown
Launch date: May 10, 1999
Source: People's Republic of China (PRC)
Launch site: Taiyaun Space Center, China (TSC)

Note: This is SATELLITE DEBRIS
Your satellite tracking list
Your tracking list is empty




NASA's NSSDC Master Catalog

Two Line Element Set (TLE):
1 41008U 99025EXN 24085.70253411  .00002088  00000-0  12384-2 0  9998
2 41008  99.2514 261.8128 0512967 328.8248  28.3374 13.58158296479238
Source of the keplerian elements: AFSPC